Barrow, AK

5:41 AM AKDT on April 28, 2017 (GMT -0800)
Wiley Post-Will Rogers Memorial

Weather History for PABR - August, 2013

Change the Weather History Date:

Sunday, August 4, 2013

  Actual Average Record
Temperature  
Mean Temperature 41 °F 40 °F  
Max Temperature 44 °F 46 °F 69 °F (1977)
Min Temperature 37 °F 35 °F 26 °F (1932)
Degree Days  
Heating Degree Days 24 25  
Month to date heating degree days 70 100  
Since 1 June heating degree days 1477 1727  
Since 1 July heating degree days 699 847  
Cooling Degree Days 0    
Month to date cooling degree days 0  
Year to date cooling degree days 0  
Since 1 June cooling degree days 0  
Moisture  
Dew Point 38 °F    
Average Humidity 0    
Maximum Humidity 0    
Minimum Humidity 0    
Precipitation  
Precipitation 0.25 in 0.04 in 0.45 in (1969)
Month to date precipitation 0.76 0.14  
Year to date precipitation 4.43 2.14  
Snow  
Snow 0.00 in 0.10 in 0.30 in (1964)
Month to date snowfall 0.0 0.1  
Since 1 June snowfall 0.3 1.0  
Since 1 July snowfall 0.0 0.3  
Snow Depth 0.00 in    
Sea Level Pressure  
Sea Level Pressure 29.56 in    
Wind  
Wind Speed 9 mph (NE)    
Max Wind Speed 21 mph    
Max Gust Speed 23 mph    
Visibility 8 miles    
Events Rain    
T = Trace of Precipitation, MM = Missing Value Source: NWS Daily Summary

Daily Weather History Graph

Daily Weather History Graph

Search for Another Location

Airport or City:

Trip Planner

Search our weather history database for the weather conditions in past years. The results will help you decide how hot, cold, wet, or windy it might be!

Date:

Astronomy

Aug. 04, 2013 Rise Set
Actual Time 3:40 AM AKDT 1:15 AM AKDT
Civil Twilight Sun does not set Sun does not set
Nautical Twilight Sun does not set Sun does not set
Astronomical Twilight Sun does not set Sun does not set
Moon 1:30 AM AKDT (8/4) 11:14 PM AKDT (8/4)
Length of Visible Light 24h 00m
Length of Day
21h 34m
Waning Crescent, 4% of the Moon is Illuminated
Aug 4
Waning Crescent
Aug 6
New
Aug 14
First Quarter
Aug 20
Full
Aug 28
Last Quarter

Hourly Weather History & Observations

Time (AKDT) Temp. Windchill Dew Point Humidity Pressure Visibility Wind Dir Wind Speed Gust Speed Precip Events Conditions
12:53 AM 39.0 °F 29.9 °F 37.0 °F 93% 29.59 in 10.0 mi ENE 17.3 mph - 0.01 in Rain Light Rain
1:11 AM 39.2 °F 30.2 °F 37.4 °F 93% 29.58 in 6.0 mi ENE 17.3 mph - 0.01 in Rain Light Rain
1:53 AM 37.9 °F 28.9 °F 37.0 °F 97% 29.58 in 6.0 mi ENE 16.1 mph - 0.06 in Rain Light Rain
2:07 AM 37.4 °F 28.2 °F 37.4 °F 100% 29.56 in 6.0 mi ENE 16.1 mph - 0.02 in Rain Light Rain
2:29 AM 37.4 °F 27.5 °F 37.4 °F 100% 29.55 in 4.0 mi ENE 18.4 mph - 0.07 in Rain Light Rain
2:46 AM 37.4 °F 27.8 °F 37.4 °F 100% 29.55 in 6.0 mi ENE 17.3 mph - 0.09 in Rain Light Rain
2:53 AM 37.9 °F 27.9 °F 37.0 °F 97% 29.56 in 8.0 mi ENE 19.6 mph - 0.09 in Rain Light Rain
3:23 AM 37.4 °F 27.5 °F 37.4 °F 100% 29.54 in 10.0 mi ENE 18.4 mph - 0.01 in Rain Light Rain
3:53 AM 37.9 °F 28.5 °F 37.0 °F 97% 29.54 in 10.0 mi ENE 17.3 mph - 0.02 in Rain Light Rain
4:00 AM 37.4 °F 27.5 °F 37.4 °F 100% 29.53 in 6.0 mi ENE 18.4 mph - 0.01 in Rain Light Rain
4:43 AM 39.2 °F 30.2 °F 37.4 °F 93% 29.53 in 10.0 mi ENE 17.3 mph - 0.07 in Rain Light Rain
4:53 AM 37.9 °F 29.2 °F 37.0 °F 97% 29.53 in 10.0 mi ENE 15.0 mph - 0.07 in Rain Light Rain
5:26 AM 37.4 °F 28.9 °F 37.4 °F 100% 29.53 in 4.0 mi ENE 13.8 mph - 0.00 in Rain Light Rain
5:53 AM 37.9 °F 30.0 °F 37.0 °F 97% 29.53 in 2.0 mi ENE 12.7 mph - 0.00 in Rain Light Rain
6:02 AM 37.4 °F 28.9 °F 37.4 °F 100% 29.53 in 1.8 mi ENE 13.8 mph - 0.00 in Rain Light Rain
6:20 AM 37.4 °F 28.9 °F 37.4 °F 100% 29.52 in 2.0 mi ENE 13.8 mph - 0.00 in Rain Light Rain
6:32 AM 37.4 °F 29.3 °F 37.4 °F 100% 29.52 in 1.8 mi ENE 12.7 mph - 0.00 in Rain Light Rain
6:40 AM 37.4 °F 28.9 °F 37.4 °F 100% 29.52 in 2.0 mi ENE 13.8 mph - 0.00 in Rain Light Rain
6:51 AM 37.4 °F 29.3 °F 37.4 °F 100% 29.52 in 4.0 mi ENE 12.7 mph - 0.00 in Rain Light Rain
6:53 AM 37.9 °F 30.0 °F 37.0 °F 97% 29.52 in 5.0 mi ENE 12.7 mph - 0.01 in Rain Light Rain
7:32 AM 39.2 °F 32.0 °F 37.4 °F 93% 29.52 in 10.0 mi East 11.5 mph - 0.00 in Rain Light Rain
7:53 AM 39.0 °F 32.8 °F 37.0 °F 93% 29.52 in 10.0 mi East 9.2 mph - 0.00 in   Overcast
8:43 AM 39.2 °F 33.6 °F 37.4 °F 93% 29.52 in 10.0 mi ENE 8.1 mph - N/A   Overcast
8:53 AM 39.9 °F 35.1 °F 37.9 °F 93% 29.52 in 10.0 mi ENE 6.9 mph - N/A   Overcast
9:53 AM 41.0 °F 39.0 °F 37.9 °F 89% 29.52 in 10.0 mi NE 3.5 mph - N/A   Overcast
10:08 AM 41.0 °F 38.0 °F 37.4 °F 87% 29.52 in 10.0 mi NNE 4.6 mph - N/A   Overcast
10:53 AM 43.0 °F - 39.9 °F 89% 29.54 in 10.0 mi Calm Calm - N/A   Overcast
11:45 AM 42.8 °F 39.3 °F 39.2 °F 87% 29.54 in 10.0 mi WNW 5.8 mph - N/A   Overcast
11:53 AM 43.0 °F 38.8 °F 39.0 °F 86% 29.54 in 10.0 mi NW 6.9 mph - N/A   Overcast
12:38 PM 44.6 °F 42.2 °F 39.2 °F 81% 29.55 in 10.0 mi North 4.6 mph - N/A   Overcast
12:53 PM 43.0 °F 41.3 °F 39.9 °F 89% 29.56 in 10.0 mi NNE 3.5 mph - N/A   Overcast
1:40 PM 42.8 °F 38.6 °F 41.0 °F 93% 29.56 in 9.0 mi NNW 6.9 mph - N/A   Overcast
1:53 PM 42.1 °F 38.4 °F 39.9 °F 92% 29.57 in 7.0 mi NNW 5.8 mph - N/A   Overcast
2:53 PM 42.1 °F 38.4 °F 39.9 °F 92% 29.58 in 10.0 mi NNW 5.8 mph - N/A   Overcast
3:10 PM 42.8 °F 40.1 °F 39.2 °F 87% 29.58 in 10.0 mi NNW 4.6 mph - N/A   Overcast
3:53 PM 43.0 °F 39.5 °F 39.9 °F 89% 29.59 in 10.0 mi NNW 5.8 mph - N/A   Overcast
4:53 PM 43.0 °F 38.8 °F 39.9 °F 89% 29.60 in 10.0 mi NNW 6.9 mph - N/A   Overcast
5:20 PM 42.8 °F 38.6 °F 39.2 °F 87% 29.60 in 10.0 mi NNW 6.9 mph - N/A   Overcast
5:53 PM 42.1 °F 36.6 °F 39.0 °F 89% 29.60 in 10.0 mi North 9.2 mph - 0.00 in Rain Light Rain
6:53 PM 41.0 °F 35.8 °F 37.9 °F 89% 29.62 in 10.0 mi NE 8.1 mph - 0.00 in   Overcast
7:53 PM 41.0 °F 36.4 °F 39.0 °F 93% 29.62 in 10.0 mi NNE 6.9 mph - 0.00 in Rain Light Rain
8:53 PM 41.0 °F 37.1 °F 37.9 °F 89% 29.64 in 10.0 mi North 5.8 mph - 0.01 in   Overcast
9:53 PM 39.9 °F 33.9 °F 37.9 °F 93% 29.65 in 9.0 mi North 9.2 mph - 0.00 in Rain Light Rain
10:53 PM 39.0 °F 32.3 °F 37.0 °F 93% 29.67 in 10.0 mi North 10.4 mph - 0.00 in Rain Light Rain
11:53 PM 37.9 °F 30.9 °F 36.0 °F 93% 29.68 in 10.0 mi North 10.4 mph - 0.01 in Rain Light Rain